Weather History for Lanai City, HI

Change the Weather History Date:

Wednesday, November 21, 2012

  Actual Average Record
Temperature  
Mean Temperature 72 °F -  
Max Temperature 81 °F 79 °F 86 °F (2001)
Min Temperature 64 °F 63 °F 58 °F (1993)
Cooling Degree Days 8    
Growing Degree Days 22 (Base 50)    
Moisture  
Dew Point 64 °F    
Average Humidity 76    
Maximum Humidity 96    
Minimum Humidity 58    
Precipitation  
Precipitation 0.00 in - - ()
Sea Level Pressure  
Sea Level Pressure 29.98 in    
Wind  
Wind Speed 5 mph (ESE)    
Max Wind Speed 9 mph    
Max Gust Speed -    
Visibility 10 miles    
Events      
Averages and records for this station are not official NWS values.
T = Trace of Precipitation, MM = Missing Value Source: NWS Daily Summary

Daily Weather History Graph

Daily Weather History Graph

Search for Another Location

Airport:

Trip Planner

Search our weather history database for the weather conditions in past years. The results will help you decide how hot, cold, wet, or windy it might be!

Date:

Astronomy

Nov. 21, 2012 Rise Set
Actual Time 6:41 AM HST 5:45 PM HST
Civil Twilight 6:18 AM HST 6:09 PM HST
Nautical Twilight 5:51 AM HST 6:36 PM HST
Astronomical Twilight 5:24 AM HST 7:03 PM HST
Moon 1:27 PM HST (11/21) 12:57 AM HST (11/21)
Length of Visible Light 11h 50m
Length of Day
11h 03m
Waxing Gibbous, 63% of the Moon is Illuminated
Nov 21
Waxing Gibbous
Nov 28
Full
Dec 6
Last Quarter
Dec 12
New
Dec 19
First Quarter

Hourly Weather History & Observations

Time (HST) Temp. Heat Index Dew Point Humidity Pressure Visibility Wind Dir Wind Speed Gust Speed Precip Events Conditions
12:56 AM 68.9 °F - 63.9 °F 84% 29.98 in 10.0 mi ENE 8.1 mph - N/A   Partly Cloudy
1:56 AM 69.8 °F - 64.4 °F 83% 30.05 in 10.0 mi Calm Calm - N/A   Mostly Cloudy
2:56 AM 66.9 °F - 63.0 °F 87% 29.97 in 10.0 mi NE 4.6 mph - N/A   Clear
3:56 AM 66.9 °F - 63.9 °F 90% 29.96 in 10.0 mi East 4.6 mph - N/A   Clear
4:56 AM 64.9 °F - 63.0 °F 93% 29.96 in 10.0 mi ENE 5.8 mph - N/A   Clear
5:56 AM 66.9 °F - 64.9 °F 93% 29.97 in 10.0 mi East 5.8 mph - N/A   Clear
6:56 AM 64.9 °F - 63.9 °F 96% 29.99 in 10.0 mi ENE 5.8 mph - N/A   Clear
7:56 AM 70.0 °F - 66.9 °F 90% 30.00 in 10.0 mi Calm Calm - N/A   Clear
8:56 AM 77.0 °F - 64.9 °F 66% 30.01 in 10.0 mi Variable 3.5 mph - N/A   Clear
9:56 AM 79.9 °F - 64.9 °F 60% 30.01 in 10.0 mi WNW 6.9 mph - N/A   Scattered Clouds
10:56 AM 79.9 °F - 64.9 °F 60% 29.99 in 10.0 mi West 9.2 mph - N/A   Clear
11:56 AM 81.9 °F 83.9 °F 65.8 °F 58% 29.95 in 10.0 mi West 9.2 mph - N/A   Scattered Clouds
12:56 PM 81.0 °F 82.7 °F 64.9 °F 58% 29.93 in 10.0 mi Variable 6.9 mph - N/A   Scattered Clouds
1:29 PM 78.8 °F - 64.4 °F 61% 29.98 in 10.0 mi Calm Calm - N/A   Mostly Cloudy
1:56 PM 80.6 °F 82.3 °F 64.4 °F 58% 29.97 in 10.0 mi Variable 4.6 mph - N/A   Mostly Cloudy
2:56 PM 77.9 °F - 64.9 °F 64% 29.91 in 10.0 mi SSW 5.8 mph - N/A   Overcast
3:56 PM 74.8 °F - 63.9 °F 69% 29.92 in 10.0 mi Variable 3.5 mph - N/A   Mostly Cloudy
4:05 PM 75.2 °F - 64.4 °F 69% 29.97 in 10.0 mi Calm Calm - N/A   Partly Cloudy
4:45 PM 73.4 °F - 64.4 °F 73% 29.98 in 10.0 mi Calm Calm - N/A   Mostly Cloudy
4:56 PM 73.4 °F - 64.4 °F 73% 29.98 in 10.0 mi SSW 3.5 mph - N/A   Mostly Cloudy
5:25 PM 73.4 °F - 64.4 °F 73% 29.99 in 10.0 mi South 4.6 mph - N/A   Scattered Clouds
5:35 PM 73.4 °F - 64.4 °F 73% 29.99 in 10.0 mi SSE 4.6 mph - N/A   Mostly Cloudy
5:56 PM 72.9 °F - 63.9 °F 73% 29.95 in 10.0 mi SSE 4.6 mph - N/A   Scattered Clouds
6:56 PM 70.9 °F - 63.9 °F 78% 29.98 in 10.0 mi SE 4.6 mph - N/A   Clear
7:56 PM 70.0 °F - 63.0 °F 78% 29.99 in 10.0 mi East 3.5 mph - N/A   Clear
8:56 PM 68.9 °F - 63.9 °F 84% 29.99 in 10.0 mi ESE 3.5 mph - N/A   Clear
9:56 PM 68.9 °F - 65.8 °F 90% 29.99 in 10.0 mi East 4.6 mph - N/A   Clear
10:56 PM 66.9 °F - 64.9 °F 93% 29.99 in 10.0 mi East 5.8 mph - N/A   Clear
11:56 PM 66.9 °F - 63.9 °F 90% 29.96 in 10.0 mi ENE 8.1 mph - N/A   Clear